Weather observations for the past three days for
Joplin, Joplin Regional Airport
Imperial (Metric)
Date Time (cdt) Wind (mph) Vis. (mi.) Weather Sky Cond. Temperature (ºF) Relative Humidity Wind Chill (°F) Heat Index (°F) Pressure Precipitation (in)
Air Dwpt 6 hour altimeter (in) sea level (mb) 1 hr 3 hr 6 hr
Max. Min.
22 03:53 S 12 10.00 Fair CLR 75 64.9 71% 77 30.07 1016.8
22 02:53 S 8 10.00 Fair CLR 73.9 64.9 74% 30.07 1017.1
22 01:53 S 8 10.00 Fair CLR 75 64.9 71% 77 30.07 1017.2
22 00:53 S 10 10.00 Fair CLR 75.9 64 88 75 67% 78 30.08 1017.4
21 23:53 S 9 10.00 Fair CLR 75.9 64 67% 78 30.08 1017.4
21 21:53 S 7 10.00 Fair CLR 78.1 64.9 64% 80 30.07 1017.0
21 20:53 S 7 10.00 Fair CLR 80.1 66 62% 82 30.06 1016.8
21 19:53 S 13 10.00 Fair CLR 84.9 64.9 51% 87 30.08 1017.3
21 18:53 S 10 10.00 A Few Clouds FEW050 88 66 91.9 87.1 48% 90 30.09 1017.7
21 17:53 S 13 10.00 Fair CLR 90 66.9 47% 93 30.1 1017.9
21 16:53 S 10 10.00 Partly Cloudy SCT055 89.1 66.9 48% 92 30.11 1018.5
21 15:53 S 9 10.00 Mostly Cloudy BKN047 88 66.9 50% 91 30.13 1019.1
21 14:53 S 9 10.00 Mostly Cloudy BKN045 91 69.1 49% 96 30.15 1019.6
21 13:53 S 8 10.00 A Few Clouds FEW045 FEW060 90 66.9 47% 93 30.17 1020.5
21 12:53 SW 15 G 22 10.00 Partly Cloudy FEW060 SCT120 89.1 68 89.1 75.9 50% 93 30.19 1021.1
21 11:53 SW 17 10.00 Partly Cloudy SCT060 SCT110 88 69.1 54% 92 30.21 1021.8
21 10:53 S 16 10.00 Mostly Cloudy SCT055 BKN100 84.9 68 57% 88 30.23 1022.4
21 09:53 S 13 10.00 Mostly Cloudy BKN065 BKN095 82.9 68 61% 86 30.23 1022.5
21 08:53 S 14 10.00 Mostly Cloudy BKN060 82 68 63% 85 30.23 1022.5
21 06:53 S 9 10.00 Partly Cloudy SCT060 SCT120 75.9 66 79 75.9 72% 77 30.22 1022.1
21 05:53 S 10 10.00 Partly Cloudy SCT080 75.9 66 72% 77 30.22 1022.1
21 04:53 S 12 10.00 Partly Cloudy SCT085 77 66.9 71% 79 30.22 1022.0
21 03:53 S 9 10.00 Partly Cloudy FEW047 SCT060 77 68 74% 79 30.21 1021.8
21 02:53 SE 6 10.00 A Few Clouds FEW085 77 69.1 77% 79 30.21 1021.7
21 01:53 SE 6 10.00 Fair CLR 78.1 69.1 74% 80 30.22 1022.0
21 00:53 SE 6 10.00 Fair CLR 78.1 68 86 78.1 71% 80 30.21 1021.8
20 23:53 SE 8 10.00 Partly Cloudy FEW043 SCT075 79 68 69% 81 30.2 1021.5
20 22:53 SE 6 10.00 Partly Cloudy FEW048 SCT055 80.1 68 67% 83 30.2 1021.3
20 21:53 SE 5 10.00 Fair CLR 81 68 65% 84 30.19 1021.0
20 20:53 SE 6 10.00 Fair CLR 82.9 68 61% 86 30.18 1020.6
20 19:53 SE 7 10.00 Fair CLR 84.9 68 57% 88 30.17 1020.6
20 18:53 SE 8 10.00 Fair CLR 87.1 66.9 91.9 87.1 51% 90 30.18 1020.7
20 17:53 E 12 10.00 Fair CLR 89.1 66.9 48% 92 30.18 1020.8
20 16:53 SE 6 10.00 A Few Clouds FEW055 88 66 48% 90 30.21 1021.7
20 15:53 SE 7 10.00 A Few Clouds FEW080 88 64 45% 89 30.23 1022.3
20 14:53 Vrbl 6 10.00 A Few Clouds FEW060 FEW080 91 66 44% 94 30.24 1022.7
20 13:53 E 9 10.00 Partly Cloudy FEW050 SCT075 90 66.9 47% 93 30.25 1023.2
20 12:53 S 6 10.00 Mostly Cloudy BKN060 88 66.9 90 72 50% 91 30.27 1023.7
20 11:53 SW 6 10.00 Mostly Cloudy BKN044 87.1 68 53% 91 30.27 1023.9
20 10:53 S 5 10.00 Mostly Cloudy BKN060 86 70 59% 91 30.28 1024.1
20 09:53 S 9 10.00 Fair CLR 82.9 69.1 63% 87 30.28 1024.1
20 08:53 S 6 10.00 A Few Clouds FEW090 81 69.1 67% 84 30.27 1023.9
20 07:53 Vrbl 5 10.00 Partly Cloudy SCT085 75.9 68 77% 77 30.27 1023.8
20 06:53 Calm 9.00 Fair CLR 72 66.9 75.9 70 84% 30.26 1023.5
20 05:53 Calm 9.00 Fair CLR 70 66 87% 30.24 1022.8
20 04:53 SE 6 10.00 Fair CLR 71.1 66 84% 30.22 1022.3
20 03:53 SE 5 10.00 Fair CLR 71.1 66 84% 30.22 1022.0
20 02:53 SE 3 10.00 Fair CLR 73.9 66 76% 30.21 1021.9
20 01:53 SE 5 10.00 Fair CLR 75.9 66 72% 77 30.21 1021.8
20 00:53 SE 6 10.00 Fair CLR 75.9 66 87.1 75.9 72% 77 30.21 1021.8
19 23:53 SE 6 10.00 Fair CLR 75.9 64.9 69% 78 30.21 1021.7
19 22:53 SE 7 10.00 Fair CLR 77 64.9 66% 79 30.2 1021.5
19 21:53 E 5 10.00 Fair CLR 78.1 66 67% 80 30.19 1021.1
19 20:53 SE 5 10.00 Fair CLR 81 66 61% 83 30.17 1020.4
19 19:53 SE 6 10.00 Fair CLR 84.9 63 48% 86 30.15 1019.7
19 18:53 SE 6 10.00 A Few Clouds FEW065 84.9 64 90 84.9 50% 86 30.14 1019.5
19 17:53 E 10 10.00 Mostly Cloudy BKN060 BKN075 89.1 64.9 45% 91 30.13 1019.1
19 16:53 Vrbl 3 10.00 A Few Clouds FEW055 89.1 64.9 45% 91 30.14 1019.4
19 15:53 Vrbl 5 10.00 Partly Cloudy SCT060 89.1 66 47% 92 30.15 1019.6
19 14:53 SW 8 10.00 A Few Clouds FEW055 89.1 64.9 45% 91 30.15 1019.8
19 13:53 S 8 10.00 Fair CLR 88 64 45% 89 30.17 1020.4
19 12:53 S 9 G 20 8.00 A Few Clouds FEW120 87.1 66 87.1 72 50% 89 30.18 1020.9
19 11:53 S 12 10.00 Mostly Cloudy BKN120 84 68 59% 87 30.19 1021.1
19 10:53 S 13 9.00 Overcast OVC120 82 68 63% 85 30.19 1021.1
19 09:53 S 8 10.00 Overcast OVC110 78.1 68 71% 80 30.19 1021.1
19 08:53 S 12 9.00 Overcast OVC110 75 66 74% 76 30.17 1020.3
19 07:53 SE 10 10.00 Overcast SCT080 OVC100 73 64.9 76% 30.14 1019.6
19 06:53 SE 8 10.00 Overcast OVC095 72 64.9 75.9 71.1 79% 30.13 1018.9
19 05:53 SE 8 10.00 Overcast OVC090 72 66 82% 30.1 1018.1
19 04:53 SE 8 10.00 Fair CLR 71.1 66 84% 30.08 1017.3
Date Time (cdt) Wind (mph) Vis. (mi.) Weather Sky Cond. Air Dwpt Max. Min. Relative Humidity Wind Chill (°F) Heat Index (°F) altimeter (in) sea level (mb) 1 hr 3 hr 6 hr
6 hour
Temperature (ºF) Pressure Precipitation (in)